User: anonymous   Login
Location: Unspecified
(0.0000°N, 0.0000°E)
Time: 21:54:47
(UTC+00:00)
Language:

STARLINK-30844 - Orbit

View from above orbital plane
View from above orbital plane
View from above satellite
View from above satellite

Ground track
Ground track

The orbit is defined by the following mean orbital elements,

1 58403U          26145.59114900 +.00000000 +00000-0 +24107-3 0 00007
2 58403  43.0038 338.5543 0001918 267.1264  92.9368 15.27553230    08
Epoch (UTC): 25 May 2026 14:11:15
Eccentricity: 0.0001918
inclination: 43.0038°
perigee height: 482 km
apogee height: 484 km
right ascension of ascending node: 338.5543°
argument of perigee: 267.1264°
revolutions per day: 15.27553230
mean anomaly at epoch: 92.9368°

The dashed part of the orbit path shows where the satellite is in the earth's shadow,  

DLR